Weather History for Sexton Summit, OR

Change the Weather History Date:

Friday, November 9, 2012

  Actual Average Record
Temperature  
Mean Temperature 29 °F -  
Max Temperature 32 °F 45 °F 64 °F (1996)
Min Temperature 26 °F 36 °F 26 °F (2012)
Degree Days  
Heating Degree Days 36    
Moisture  
Dew Point 27 °F    
Average Humidity 94    
Maximum Humidity 100    
Minimum Humidity 86    
Precipitation  
Precipitation 0.31 in - - ()
Sea Level Pressure  
Sea Level Pressure 29.83 in    
Wind  
Wind Speed 3 mph (SW)    
Max Wind Speed 10 mph    
Max Gust Speed -    
Visibility 2 miles    
Events Fog , Snow    
Averages and records for this station are not official NWS values.
T = Trace of Precipitation, MM = Missing Value Source: NWS Daily Summary

Daily Weather History Graph

Daily Weather History Graph

Search for Another Location

Airport:

Trip Planner

Search our weather history database for the weather conditions in past years. The results will help you decide how hot, cold, wet, or windy it might be!

Date:

Astronomy

Nov. 09, 2012 Rise Set
Actual Time 6:58 AM PST 4:56 PM PST
Civil Twilight 6:28 AM PST 5:26 PM PST
Nautical Twilight 5:54 AM PST 5:59 PM PST
Astronomical Twilight 5:21 AM PST 6:32 PM PST
Moon 1:57 AM PST (11/9) 2:17 PM PST (11/9)
Length of Visible Light 10h 57m
Length of Day
9h 58m
Waning Crescent, 22% of the Moon is Illuminated
Nov 9
Waning Crescent
Nov 13
New
Nov 20
First Quarter
Nov 28
Full
Dec 6
Last Quarter

Hourly Weather History & Observations

Time (PST) Temp. Windchill Dew Point Humidity Pressure Visibility Wind Dir Wind Speed Gust Speed Precip Events Conditions
12:29 AM 28.4 °F - 24.8 °F 86% 29.77 in 2.5 mi Calm Calm - N/A   Overcast
12:36 AM 28.4 °F 24.6 °F 24.8 °F 86% 29.77 in 10.0 mi South 3.5 mph - N/A   Overcast
12:49 AM 28.4 °F - 26.6 °F 93% 29.77 in 2.0 mi Calm Calm - N/A   Overcast
12:51 AM 28.4 °F - 26.6 °F 93% 29.77 in 1.2 mi Calm Calm - N/A   Overcast
12:56 AM 28.9 °F - 27.0 °F 92% 29.85 in 0.5 mi Calm Calm - N/A Fog Light Freezing Fog
1:15 AM 28.4 °F 24.6 °F 26.6 °F 93% 29.77 in 0.2 mi SW 3.5 mph - N/A Fog Light Freezing Fog
1:30 AM 28.4 °F - 26.6 °F 93% 29.78 in 0.2 mi Calm Calm - N/A Fog Light Freezing Fog
1:37 AM 28.4 °F 24.6 °F 24.8 °F 86% 29.78 in 1.0 mi WSW 3.5 mph - N/A   Overcast
1:39 AM 28.4 °F 24.6 °F 24.8 °F 86% 29.78 in 3.0 mi SW 3.5 mph - N/A   Overcast
1:47 AM 28.4 °F - 24.8 °F 86% 29.78 in 6.0 mi Calm Calm - N/A   Overcast
1:50 AM 28.4 °F - 24.8 °F 86% 29.78 in 1.5 mi Calm Calm - N/A   Overcast
1:56 AM 28.0 °F - 27.0 °F 96% 29.87 in 1.0 mi Calm Calm - N/A   Overcast
2:02 AM 28.4 °F 23.3 °F 26.6 °F 93% 29.79 in 2.0 mi SSW 4.6 mph - N/A   Overcast
2:05 AM 26.6 °F 21.2 °F 24.8 °F 93% 29.79 in 5.0 mi SSW 4.6 mph - N/A   Overcast
2:34 AM 26.6 °F 22.6 °F 24.8 °F 93% 29.79 in 1.8 mi Variable 3.5 mph - N/A   Overcast
2:37 AM 28.4 °F 24.6 °F 24.8 °F 86% 29.79 in 3.0 mi West 3.5 mph - N/A   Overcast
2:56 AM 28.0 °F - 25.0 °F 88% 29.87 in 10.0 mi Calm Calm - N/A   Overcast
3:56 AM 27.0 °F 23.0 °F 25.0 °F 92% 29.88 in 10.0 mi WSW 3.5 mph - N/A   Overcast
4:56 AM 27.0 °F 21.6 °F 25.0 °F 92% 29.88 in 10.0 mi SW 4.6 mph - N/A   Overcast
5:35 AM 26.6 °F 18.2 °F 24.8 °F 93% 29.79 in 7.0 mi SSW 8.1 mph - N/A   Mostly Cloudy
5:50 AM 26.6 °F 18.2 °F 26.6 °F 100% 29.79 in 1.8 mi SSW 8.1 mph - N/A   Overcast
5:53 AM 26.6 °F 18.2 °F 26.6 °F 100% 29.79 in 0.8 mi SSW 8.1 mph - N/A   Overcast
5:56 AM 27.0 °F 18.7 °F 26.1 °F 96% 29.88 in 0.5 mi SSW 8.1 mph - N/A Fog Light Freezing Fog
6:10 AM 26.6 °F 17.5 °F 26.6 °F 100% 29.79 in 1.5 mi SSW 9.2 mph - 0.00 in   Overcast
6:12 AM 26.6 °F 16.8 °F 26.6 °F 100% 29.79 in 3.0 mi SW 10.4 mph - 0.00 in   Overcast
6:18 AM 26.6 °F 18.2 °F 26.6 °F 100% 29.79 in 1.5 mi SW 8.1 mph - 0.00 in   Overcast
6:20 AM 26.6 °F 18.2 °F 26.6 °F 100% 29.79 in 0.8 mi SW 8.1 mph - 0.00 in   Overcast
6:56 AM 27.0 °F 20.5 °F 25.0 °F 92% 29.88 in 0.8 mi SSW 5.8 mph - 0.00 in   Overcast
6:59 AM 26.6 °F 21.2 °F 26.6 °F 100% 29.80 in 2.0 mi SW 4.6 mph - N/A   Overcast
7:06 AM 26.6 °F 22.6 °F 26.6 °F 100% 29.80 in 10.0 mi Variable 3.5 mph - N/A   Overcast
7:56 AM 28.0 °F 22.8 °F 25.0 °F 88% 29.90 in 10.0 mi SW 4.6 mph - 0.00 in   Overcast
8:17 AM 26.6 °F 22.6 °F 26.6 °F 100% 29.82 in 1.8 mi SW 3.5 mph - 0.00 in   Overcast
8:25 AM 28.4 °F - 26.6 °F 93% 29.82 in 3.0 mi Calm Calm - 0.00 in   Overcast
8:29 AM 28.4 °F 23.3 °F 26.6 °F 93% 29.82 in 2.5 mi SW 4.6 mph - 0.00 in   Overcast
8:31 AM 28.4 °F 23.3 °F 26.6 °F 93% 29.82 in 1.2 mi SSW 4.6 mph - 0.00 in   Overcast
8:37 AM 28.4 °F 23.3 °F 26.6 °F 93% 29.82 in 0.2 mi SSW 4.6 mph - 0.00 in Fog Light Freezing Fog
8:42 AM 28.4 °F 23.3 °F 26.6 °F 93% 29.82 in 0.2 mi SSW 4.6 mph - 0.00 in Fog Light Freezing Fog
8:56 AM 28.0 °F 21.7 °F 27.0 °F 96% 29.91 in 0.2 mi South 5.8 mph - 0.00 in Fog Light Freezing Fog
9:20 AM 28.4 °F 22.2 °F 26.6 °F 93% 29.82 in 0.2 mi South 5.8 mph - 0.00 in Fog Light Freezing Fog
9:56 AM 28.9 °F 23.9 °F 27.0 °F 92% 29.92 in 0.2 mi South 4.6 mph - 0.00 in Fog Light Freezing Fog
10:56 AM 28.9 °F 21.9 °F 28.0 °F 96% 29.92 in 0.2 mi SSW 6.9 mph - 0.00 in Fog , Snow Light Snow
11:15 AM 28.4 °F 23.3 °F 28.4 °F 100% 29.83 in 0.2 mi SSW 4.6 mph - 0.00 in Fog , Snow Light Snow
11:31 AM 30.2 °F - 28.4 °F 93% 29.83 in 0.2 mi Calm Calm - 0.00 in Fog Light Freezing Fog
11:56 AM 30.0 °F 26.5 °F 28.0 °F 92% 29.91 in 0.2 mi SW 3.5 mph - 0.01 in Fog , Snow Light Snow
12:20 PM 30.2 °F 26.7 °F 28.4 °F 93% 29.82 in 0.2 mi Variable 3.5 mph - 0.00 in Fog Light Freezing Fog
12:56 PM 30.9 °F - 28.9 °F 92% 29.90 in 0.2 mi Calm Calm - 0.00 in Fog Light Freezing Fog
1:01 PM 30.2 °F - 28.4 °F 93% 29.81 in 1.0 mi Calm Calm - 0.00 in Snow Light Snow
1:14 PM 30.2 °F 26.7 °F 28.4 °F 93% 29.81 in 2.5 mi Variable 3.5 mph - 0.00 in   Overcast
1:16 PM 30.2 °F 26.7 °F 28.4 °F 93% 29.81 in 1.0 mi SW 3.5 mph - 0.00 in   Overcast
1:18 PM 30.2 °F 26.7 °F 30.2 °F 100% 29.81 in 0.2 mi SW 3.5 mph - 0.00 in Fog Light Freezing Fog
1:28 PM 32.0 °F 28.7 °F 30.2 °F 93% 29.81 in 0.2 mi SW 3.5 mph - 0.00 in Fog , Snow Light Snow
1:48 PM 30.2 °F 26.7 °F 28.4 °F 93% 29.81 in 0.8 mi Variable 3.5 mph - 0.00 in Snow Light Snow
1:56 PM 30.9 °F - 28.9 °F 92% 29.89 in 0.2 mi Calm Calm - 0.01 in Fog , Snow Snow
2:35 PM 30.2 °F - 30.2 °F 100% 29.80 in 0.2 mi Calm Calm - 0.03 in Fog , Snow Snow
2:56 PM 30.9 °F - 30.0 °F 96% 29.89 in 0.2 mi Calm Calm - 0.03 in Fog Light Freezing Fog
3:56 PM 30.9 °F 27.5 °F 28.9 °F 92% 29.89 in 0.2 mi Variable 3.5 mph - 0.00 in Fog Light Freezing Fog
4:15 PM 30.2 °F 26.7 °F 28.4 °F 93% 29.80 in 1.0 mi Variable 3.5 mph - N/A   Mist
4:25 PM 30.2 °F 26.7 °F 28.4 °F 93% 29.80 in 2.0 mi Variable 3.5 mph - N/A   Overcast
4:40 PM 30.2 °F - 28.4 °F 93% 29.80 in 10.0 mi Calm Calm - N/A   Overcast
4:56 PM 30.0 °F 26.5 °F 28.0 °F 92% 29.89 in 8.0 mi Variable 3.5 mph - N/A   Overcast
5:05 PM 30.2 °F - 28.4 °F 93% 29.80 in 10.0 mi Calm Calm - N/A   Overcast
5:16 PM 30.2 °F - 28.4 °F 93% 29.81 in 1.8 mi Calm Calm - N/A   Overcast
5:19 PM 30.2 °F - 28.4 °F 93% 29.81 in 0.8 mi Calm Calm - N/A   Overcast
5:27 PM 30.2 °F - 28.4 °F 93% 29.81 in 1.5 mi Calm Calm - N/A   Overcast
5:29 PM 30.2 °F 26.7 °F 28.4 °F 93% 29.81 in 3.0 mi Variable 3.5 mph - N/A   Overcast
5:34 PM 30.2 °F 26.7 °F 28.4 °F 93% 29.81 in 1.5 mi Variable 3.5 mph - 0.00 in Snow Light Snow
5:38 PM 30.2 °F - 28.4 °F 93% 29.81 in 0.8 mi Calm Calm - 0.00 in Snow Light Snow
5:49 PM 30.2 °F - 28.4 °F 93% 29.81 in 0.2 mi Calm Calm - 0.03 in Fog , Snow Heavy Snow
5:56 PM 30.0 °F - 28.9 °F 96% 29.90 in 0.2 mi Calm Calm - 0.04 in Fog , Snow Heavy Snow
6:23 PM 30.2 °F - 28.4 °F 93% 29.82 in 0.5 mi Calm Calm - 0.07 in Fog , Snow Snow
6:34 PM 30.2 °F - 28.4 °F 93% 29.82 in 0.2 mi Calm Calm - 0.07 in Fog , Snow Light Snow
6:56 PM 30.0 °F - 28.0 °F 92% 29.91 in 0.2 mi Calm Calm - 0.09 in Fog , Snow Light Snow
7:06 PM 28.4 °F - 28.4 °F 100% 29.82 in 0.5 mi Calm Calm - 0.01 in Fog , Snow Light Snow
7:12 PM 28.4 °F 22.2 °F 26.6 °F 93% 29.82 in 1.8 mi NNW 5.8 mph - 0.01 in Snow Light Snow
7:14 PM 28.4 °F 23.3 °F 26.6 °F 93% 29.82 in 3.0 mi NNW 4.6 mph - 0.01 in Snow Light Snow
7:22 PM 28.4 °F 24.6 °F 28.4 °F 100% 29.82 in 7.0 mi Variable 3.5 mph - 0.01 in   Overcast
7:35 PM 28.4 °F 22.2 °F 28.4 °F 100% 29.82 in 9.0 mi NNW 5.8 mph - 0.01 in   Overcast
7:43 PM 28.4 °F 23.3 °F 28.4 °F 100% 29.82 in 1.8 mi NNW 4.6 mph - 0.01 in   Overcast
7:47 PM 28.4 °F 24.6 °F 28.4 °F 100% 29.82 in 1.2 mi Variable 3.5 mph - 0.01 in Snow Light Snow
7:50 PM 28.4 °F 24.6 °F 28.4 °F 100% 29.82 in 1.5 mi Variable 3.5 mph - 0.01 in Snow Light Snow
7:54 PM 28.4 °F 24.6 °F 28.4 °F 100% 29.82 in 1.5 mi Variable 3.5 mph - 0.01 in Snow Light Snow
7:56 PM 28.9 °F - 28.0 °F 96% 29.91 in 1.5 mi Calm Calm - 0.01 in Snow Light Snow
8:10 PM 28.4 °F - 28.4 °F 100% 29.82 in 0.5 mi Calm Calm - 0.01 in Fog , Snow Snow
8:18 PM 28.4 °F - 28.4 °F 100% 29.82 in 0.2 mi Calm Calm - 0.01 in Fog , Snow Snow
8:56 PM 28.0 °F 22.8 °F 27.0 °F 96% 29.92 in 0.2 mi Variable 4.6 mph - 0.09 in Fog , Snow Snow
9:34 PM 28.4 °F 24.6 °F 26.6 °F 93% 29.83 in 0.5 mi NNW 3.5 mph - 0.03 in Fog , Snow Light Snow
9:44 PM 28.4 °F - 26.6 °F 93% 29.83 in 0.2 mi Calm Calm - 0.03 in Fog , Snow Light Snow
9:56 PM 28.0 °F 24.2 °F 27.0 °F 96% 29.92 in 0.2 mi Variable 3.5 mph - 0.03 in Fog Light Freezing Fog
10:03 PM 28.4 °F 24.6 °F 26.6 °F 93% 29.83 in 0.5 mi Variable 3.5 mph - 0.00 in Fog Light Freezing Fog
10:27 PM 28.4 °F 24.6 °F 26.6 °F 93% 29.83 in 0.2 mi Variable 3.5 mph - 0.00 in Fog Light Freezing Fog
10:56 PM 28.9 °F 25.2 °F 27.0 °F 92% 29.92 in 0.2 mi Variable 3.5 mph - 0.00 in Fog Light Freezing Fog
11:06 PM 28.4 °F 24.6 °F 26.6 °F 93% 29.84 in 0.5 mi Variable 3.5 mph - 0.00 in Fog Light Freezing Fog
11:40 PM 28.4 °F 23.3 °F 26.6 °F 93% 29.84 in 0.2 mi Variable 4.6 mph - 0.00 in Fog Light Freezing Fog
11:51 PM 28.4 °F 22.2 °F 26.6 °F 93% 29.85 in 0.5 mi NW 5.8 mph - 0.00 in Fog Light Freezing Fog
11:56 PM 28.0 °F 21.7 °F 27.0 °F 96% 29.93 in 0.8 mi NW 5.8 mph - 0.00 in   Mist